Regional Weather Roundup
Issued by NWS Newport/Morehead, NC

Current Version | Previous Version | Graphics & Text | Print | Product List | Glossary Off
Versions: 1 2 3 4 5 6 7 8 9 10 11 12 13 14 15 16 17 18 19 20 21 22 23 24 25 26 27 28 29 30 31 32 33 34 35 36 37 38 39 40 41 42

000
ASUS42 KMHX 161014
RWRMHX
WEATHER ROUNDUP FOR EASTERN NORTH CAROLINA
NATIONAL WEATHER SERVICE NEWPORT/MOREHEAD CITY NC
600 AM EDT WED AUG 16 2017

NOTE: "FAIR" INDICATES FEW OR NO CLOUDS BELOW 12,000 FEET
WITH NO SIGNIFICANT WEATHER AND/OR OBSTRUCTIONS TO VISIBILITY

NCZ015>017-031-032-045>047-102-103-161100-
NORTH COAST

CITY           SKY/WX    TMP DP  RH WIND       PRES   REMARKS
EDENTON        MOCLDY    77  75  94 CALM      29.94R
ELIZABETH CITY CLOUDY    77  76  96 N6        29.93R
KITTY HAWK     CLOUDY    76  76 100 CALM      29.91S
MANTEO         CLOUDY    77  76  95 NE7       29.92S

$$

NCZ045>047-081-094-103-104-161100-
CENTRAL COAST

CITY           SKY/WX    TMP DP  RH WIND       PRES   REMARKS
FRISCO         CLEAR     81  79  94 NW6       29.91R

$$

NCZ095-097-098-100-101-161100-
SOUTHERN COAST

CITY           SKY/WX    TMP DP  RH WIND       PRES   REMARKS
BEAUFORT       MOCLDY    78  78 100 NW3       29.92R
CEDAR ISLAND   NOT AVBL
JACKSONVILLE   LGT RAIN  75  75 100 CALM      29.93R
PINEY ISLAND   MOSUNNY  N/A N/A N/A W5        29.91R
WILMINGTON     CLOUDY    77  76  96 N6        29.93R


$$

NCZ011>013-027>030-043-044-078>080-089-090>093-098-161100-
COASTAL PLAIN

CITY           SKY/WX    TMP DP  RH WIND       PRES   REMARKS
AHOSKIE          N/A     74  74  99 N7        29.95R
CLINTON        CLOUDY    74  74 100 CALM      29.95R
ELIZABETHTOWN  NOT AVBL
GOLDSBORO      PTCLDY    75  73  93 CALM      29.94R
GREENVILLE     FOG       75  73  94 N3        29.96R VSB 1
HAVELOCK       PTCLDY    77  75  93 NW5       29.93R
KENANSVILLE    FOG       75  73  94 NW3       29.95R VSB 1/2
KINSTON        CLOUDY    74  74 100 NW3       29.95R FOG
NEW BERN       CLEAR     75  75 100 CALM      29.94R
RICHLANDS      FOG       74  74 100 CALM      29.94R VSB 3/4
ROCKY MOUNT    PTCLDY    73  73 100 N6        29.96R
WASHINGTON     FOG       75  74  98 N7        29.93R VSB 1/2
WHITEVILLE     CLEAR     77  76  96 CALM      29.94R

$$

AMZ130-135-150-152-154-156-158-170-250-252-270-ANZ085-086-088-633-658-670-161100-
MARINE OBSERVATIONS

STATION/POSITION TIME  TEMP    WIND        PRES    WAVE   SWELL
                       AIR SEA DIR/SP/G            HT/PER HT/PER
                 (UTC) (F)     (DEG/KT/KT) (MB)    (FT/S) (FT/S)
CHESAPEAKE LIGHT NOT AVBL
64 E VA BEACH    0950   77 79   10/ 12/ 14 1013.4    5/12   5/12
DUCK             0936   77 78   10/ 10/ 12 1012.8
2 E DUCK         1000      78                N/A     3/ 9   2/11
OREGON INLET     0936   78 81  350/  5/  6 1012.7
13E OREGON INLT  0948      80                N/A     3/10   3/10
HATTERAS CG      0936   81 83  290/  8/  9 1012.4
DIAMOND BUOY     0950   81 83  260/ 10/ 12 1012.3    3/ 8   3/ 8
CAPE LOOKOUT     1000   80     290/  6/  7 1012.7
BEAUFORT LAB     0936   79 82  290/  3/  4 1012.4
30 SE NEW RVR IN 0908   79 83  340/  4/  6 1012.5
30 SE NEW RVR IN 0943      83                N/A     3/ 5
27 SE WRIGHTSVLE 0908   83 83  230/  2/  4 1012.5
5 SE WRIGHTSVLE  0908   81 83   10/  2/  4 1012.2
225 S CAPE HAT   0950   84 83  250/ 14/ 17 1014.7    5/ 6   2/ 9
41 SE CHARLESTON 1000   83 83  270/ 10/ 12 1014.1

$$




USA.gov is the U.S. government's official web portal to all federal, state and local government web resources and services.